Schneifelwetter: Wetterstation Hallschlag, 537 m . NN
Wetterdaten: Samstag, 06.08.2011
Datum Zeit Temp. A. Feuchte A. Luftdruck Regen Wind Richtung Richtung Sonnenschein Helligkeit T Regen Taupunkt Windchill
06.08.2011 00:09 16,2 C 88 % 1011 hPa 0,0 l/m 0,0 km/h (0 Bft) N-NO 25 0 min 0 lux 0 min 14,2 C 16,2 C
06.08.2011 00:24 16,4 C 88 % 1011 hPa 0,0 l/m 0,0 km/h (0 Bft) N-NO 25 0 min 0 lux 0 min 14,4 C 16,4 C
06.08.2011 00:39 16,4 C 88 % 1011 hPa 0,0 l/m 0,0 km/h (0 Bft) N-NO 25 0 min 0 lux 0 min 14,4 C 16,4 C
06.08.2011 00:54 16,5 C 89 % 1011 hPa 0,0 l/m 1,0 km/h (0 Bft) N 360 0 min 0 lux 0 min 14,7 C 16,5 C
06.08.2011 01:09 16,9 C 91 % 1011 hPa 0,0 l/m 9,9 km/h (2 Bft) S-SW22.5 195 0 min 0 lux 0 min 15,4 C 15,3 C
06.08.2011 01:24 17,2 C 92 % 1011 hPa 0,0 l/m 8,7 km/h (2 Bft) S22.5 170 0 min 0 lux 0 min 15,9 C 16,1 C
06.08.2011 01:39 17,3 C 92 % 1011 hPa 0,0 l/m 9,2 km/h (2 Bft) S45 185 0 min 0 lux 0 min 16,0 C 16,0 C
06.08.2011 01:54 17,4 C 93 % 1011 hPa 0,0 l/m 17,0 km/h (3 Bft) SW45 215 0 min 0 lux 0 min 16,3 C 13,6 C
06.08.2011 02:09 17,4 C 92 % 1011 hPa 0,0 l/m 22,7 km/h (4 Bft) SW45 215 0 min 0 lux 0 min 16,1 C 12,3 C
06.08.2011 02:24 17,4 C 93 % 1010 hPa 0,0 l/m 19,0 km/h (3 Bft) S-SW45 205 0 min 0 lux 0 min 16,3 C 13,1 C
06.08.2011 02:39 17,5 C 93 % 1010 hPa 0,0 l/m 15,1 km/h (3 Bft) S-SW22.5 195 0 min 0 lux 0 min 16,4 C 14,2 C
06.08.2011 02:54 17,5 C 92 % 1010 hPa 0,0 l/m 18,2 km/h (3 Bft) SW45 215 0 min 0 lux 0 min 16,2 C 13,4 C
06.08.2011 03:09 17,4 C 91 % 1010 hPa 0,0 l/m 17,5 km/h (3 Bft) S-SW22.5 195 0 min 0 lux 0 min 15,9 C 13,4 C
06.08.2011 03:24 17,3 C 91 % 1010 hPa 0,0 l/m 14,0 km/h (3 Bft) S22.5 185 0 min 0 lux 0 min 15,8 C 14,3 C
06.08.2011 03:39 17,1 C 91 % 1010 hPa 0,0 l/m 13,4 km/h (3 Bft) S-SW45 195 0 min 0 lux 0 min 15,6 C 14,2 C
06.08.2011 03:54 16,8 C 92 % 1010 hPa 0,0 l/m 15,0 km/h (3 Bft) S45 190 0 min 0 lux 0 min 15,5 C 13,4 C
06.08.2011 04:09 16,5 C 92 % 1010 hPa 0,0 l/m 10,7 km/h (2 Bft) S-SW45 205 0 min 0 lux 0 min 15,2 C 14,5 C
06.08.2011 04:24 16,1 C 91 % 1009 hPa 0,0 l/m 10,4 km/h (2 Bft) S-SW22.5 195 0 min 0 lux 0 min 14,6 C 14,2 C
06.08.2011 04:39 15,8 C 92 % 1009 hPa 0,0 l/m 0,0 km/h (0 Bft) SW 235 0 min 0 lux 0 min 14,5 C 15,8 C
06.08.2011 04:54 15,6 C 92 % 1009 hPa 0,0 l/m 0,0 km/h (0 Bft) SW22.5 230 0 min 0 lux 0 min 14,3 C 15,6 C
06.08.2011 05:09 15,2 C 92 % 1009 hPa 0,0 l/m 0,0 km/h (0 Bft) SW 230 0 min 0 lux 0 min 13,9 C 15,2 C
06.08.2011 05:24 15,0 C 92 % 1009 hPa 0,0 l/m 0,0 km/h (0 Bft) SW 230 0 min 0 lux 0 min 13,7 C 15,0 C
06.08.2011 05:39 14,9 C 93 % 1009 hPa 0,0 l/m 0,0 km/h (0 Bft) SW 215 0 min 0 lux 0 min 13,8 C 14,9 C
06.08.2011 05:54 15,0 C 93 % 1009 hPa 0,0 l/m 0,5 km/h (0 Bft) S22.5 180 0 min 139 lux 0 min 13,9 C 15,0 C
06.08.2011 06:09 14,9 C 94 % 1009 hPa 0,0 l/m 0,6 km/h (0 Bft) S 170 0 min 595 lux 0 min 13,9 C 14,9 C
06.08.2011 06:24 15,0 C 94 % 1009 hPa 0,0 l/m 1,5 km/h (1 Bft) S-SW45 205 0 min 1,47 klux 0 min 14,0 C 15,0 C
06.08.2011 06:39 15,5 C 95 % 1009 hPa 0,0 l/m 1,7 km/h (1 Bft) SW22.5 215 0 min 5,30 klux 0 min 14,7 C 15,5 C
06.08.2011 06:54 16,0 C 95 % 1009 hPa 0,0 l/m 10,8 km/h (2 Bft) S22.5 185 0 min 5,81 klux 0 min 15,2 C 13,9 C
06.08.2011 07:09 16,6 C 95 % 1008 hPa 0,0 l/m 13,5 km/h (3 Bft) SW22.5 220 0 min 10,3 klux 0 min 15,8 C 13,6 C
06.08.2011 07:24 17,2 C 93 % 1008 hPa 0,0 l/m 15,0 km/h (3 Bft) SW45 220 0 min 10,0 klux 0 min 16,1 C 13,9 C
06.08.2011 07:39 17,4 C 93 % 1008 hPa 0,0 l/m 9,0 km/h (2 Bft) S22.5 190 0 min 9,3 klux 0 min 16,3 C 16,2 C
06.08.2011 07:54 17,7 C 93 % 1008 hPa 0,0 l/m 9,6 km/h (2 Bft) SW45 225 0 min 16,4 klux 0 min 16,6 C 16,3 C
06.08.2011 08:09 18,3 C 92 % 1008 hPa 0,0 l/m 11,5 km/h (2 Bft) S-SW22.5 200 0 min 17,4 klux 0 min 17,0 C 16,2 C
06.08.2011 08:24 18,6 C 90 % 1008 hPa 0,0 l/m 15,0 km/h (3 Bft) SW22.5 220 0 min 15,3 klux 0 min 16,9 C 15,6 C
06.08.2011 08:39 18,6 C 90 % 1008 hPa 0,0 l/m 16,6 km/h (3 Bft) S22.5 185 0 min 16,9 klux 0 min 16,9 C 15,2 C
06.08.2011 08:54 19,0 C 89 % 1008 hPa 0,0 l/m 17,3 km/h (3 Bft) S45 170 0 min 24,7 klux 0 min 17,1 C 15,5 C
06.08.2011 09:09 19,1 C 87 % 1008 hPa 0,0 l/m 19,0 km/h (3 Bft) S22.5 185 0 min 18,6 klux 0 min 16,9 C 15,2 C
06.08.2011 09:24 19,0 C 87 % 1007 hPa 0,0 l/m 14,3 km/h (3 Bft) SW45 235 0 min 13,0 klux 0 min 16,8 C 16,2 C
06.08.2011 09:45 19,0 C 87 % 1008 hPa 0,0 l/m 13,1 km/h (3 Bft) S-SO22.5 155 0 min 19,1 klux 0 min 16,8 C 16,6 C
06.08.2011 10:00 19,3 C 87 % 1008 hPa 0,0 l/m 19,1 km/h (3 Bft) S-SW45 195 0 min 21,1 klux 0 min 17,1 C 15,5 C
06.08.2011 10:15 19,6 C 86 % 1007 hPa 0,0 l/m 16,3 km/h (3 Bft) S-SW45 205 0 min 23,3 klux 0 min 17,2 C 16,5 C
06.08.2011 10:30 19,6 C 85 % 1007 hPa 0,0 l/m 20,3 km/h (4 Bft) S-SW67.5 195 0 min 20,6 klux 0 min 17,0 C 15,6 C
06.08.2011 10:45 19,7 C 85 % 1007 hPa 0,0 l/m 21,4 km/h (4 Bft) SW67.5 215 0 min 30,0 klux 0 min 17,1 C 15,6 C
06.08.2011 10:59 20,2 C 83 % 1007 hPa 0,0 l/m 19,2 km/h (3 Bft) S-SW67.5 195 0 min 34,3 klux 0 min 17,2 C 16,6 C
06.08.2011 11:15 20,5 C 81 % 1007 hPa 0,0 l/m 21,7 km/h (4 Bft) S22.5 185 0 min 40,5 klux 0 min 17,1 C 16,6 C
06.08.2011 11:30 20,3 C 80 % 1007 hPa 0,0 l/m 26,3 km/h (4 Bft) SW67.5 215 0 min 24,5 klux 0 min 16,7 C 15,6 C
06.08.2011 11:45 19,8 C 81 % 1006 hPa 0,0 l/m 26,5 km/h (4 Bft) SW45 225 0 min 29,4 klux 0 min 16,4 C 14,9 C
06.08.2011 12:00 19,6 C 82 % 1006 hPa 0,0 l/m 16,1 km/h (3 Bft) S-SW45 205 0 min 18,9 klux 0 min 16,4 C 16,5 C
06.08.2011 12:15 19,8 C 82 % 1006 hPa 0,0 l/m 24,6 km/h (4 Bft) S-SW22.5 195 0 min 27,5 klux 0 min 16,6 C 15,2 C
06.08.2011 12:29 20,1 C 80 % 1006 hPa 0,0 l/m 20,0 km/h (4 Bft) SW67.5 225 0 min 27,9 klux 0 min 16,5 C 16,3 C
06.08.2011 12:45 20,0 C 81 % 1006 hPa 0,0 l/m 17,4 km/h (3 Bft) S45 185 0 min 22,7 klux 0 min 16,6 C 16,7 C
06.08.2011 13:00 19,2 C 84 % 1006 hPa 0,0 l/m 21,3 km/h (4 Bft) S45 175 0 min 22,9 klux 0 min 16,4 C 14,9 C
06.08.2011 13:15 19,2 C 85 % 1006 hPa 0,0 l/m 16,0 km/h (3 Bft) S22.5 180 0 min 24,1 klux 0 min 16,6 C 16,0 C
06.08.2011 13:30 20,0 C 86 % 1006 hPa 0,0 l/m 14,6 km/h (3 Bft) S45 185 0 min 51,8 klux 0 min 17,6 C 17,3 C
06.08.2011 13:45 21,2 C 82 % 1006 hPa 0,3 l/m 20,0 km/h (4 Bft) S-SO45 150 0 min 53,5 klux 15 min 18,0 C 17,8 C
06.08.2011 13:59 21,5 C 79 % 1006 hPa 0,0 l/m 15,1 km/h (3 Bft) S-SW45 200 0 min 36,2 klux 0 min 17,7 C 19,0 C
06.08.2011 14:15 21,1 C 80 % 1005 hPa 0,0 l/m 17,1 km/h (3 Bft) S-SW45 200 0 min 36,6 klux 0 min 17,5 C 18,2 C
06.08.2011 14:30 20,3 C 80 % 1005 hPa 0,0 l/m 24,0 km/h (4 Bft) S-SW67.5 205 0 min 23,0 klux 0 min 16,7 C 15,9 C
06.08.2011 14:45 19,4 C 84 % 1005 hPa 0,3 l/m 19,9 km/h (4 Bft) S-SO22.5 165 0 min 12,4 klux 15 min 16,6 C 15,4 C
06.08.2011 15:00 18,9 C 86 % 1005 hPa 1,2 l/m 16,5 km/h (3 Bft) S-SW45 200 0 min 11,2 klux 15 min 16,5 C 15,5 C
06.08.2011 15:15 18,4 C 87 % 1005 hPa 1,2 l/m 16,0 km/h (3 Bft) S45 190 0 min 19,4 klux 15 min 16,2 C 15,1 C
06.08.2011 15:29 18,8 C 87 % 1004 hPa 0,6 l/m 0,0 km/h (0 Bft) S 175 0 min 42,0 klux 14 min 16,6 C 18,8 C
06.08.2011 15:45 20,0 C 87 % 1004 hPa 0,0 l/m 0,0 km/h (0 Bft) S 175 0 min 56,1 klux 0 min 17,8 C 20,0 C
06.08.2011 16:00 20,8 C 84 % 1004 hPa 0,0 l/m 8,8 km/h (2 Bft) S-SW22.5 205 0 min 44,5 klux 0 min 18,0 C 19,9 C
06.08.2011 16:15 20,5 C 83 % 1004 hPa 0,0 l/m 12,5 km/h (3 Bft) S-SW45 205 0 min 23,6 klux 0 min 17,5 C 18,5 C
06.08.2011 16:30 20,7 C 83 % 1004 hPa 0,0 l/m 11,5 km/h (2 Bft) S22.5 170 0 min 58,2 klux 0 min 17,7 C 19,0 C
06.08.2011 16:45 20,8 C 81 % 1004 hPa 0,0 l/m 16,2 km/h (3 Bft) S22.5 180 0 min 54,0 klux 0 min 17,4 C 18,0 C
06.08.2011 16:59 20,3 C 82 % 1004 hPa 0,0 l/m 11,5 km/h (2 Bft) S45 180 0 min 28,4 klux 0 min 17,1 C 18,5 C
06.08.2011 17:15 20,2 C 81 % 1004 hPa 0,0 l/m 16,7 km/h (3 Bft) SW22.5 230 0 min 27,8 klux 0 min 16,8 C 17,1 C
06.08.2011 17:30 19,5 C 83 % 1004 hPa 0,0 l/m 13,7 km/h (3 Bft) S45 175 0 min 15,4 klux 0 min 16,5 C 17,0 C
06.08.2011 17:45 19,0 C 85 % 1004 hPa 0,0 l/m 13,6 km/h (3 Bft) S22.5 190 0 min 15,0 klux 0 min 16,4 C 16,4 C
06.08.2011 18:00 18,6 C 86 % 1003 hPa 0,0 l/m 12,9 km/h (3 Bft) S-SO22.5 165 0 min 10,8 klux 0 min 16,2 C 16,1 C
06.08.2011 18:15 18,2 C 87 % 1003 hPa 0,0 l/m 15,0 km/h (3 Bft) S22.5 170 0 min 9,9 klux 0 min 16,0 C 15,1 C
06.08.2011 18:29 17,6 C 88 % 1003 hPa 0,6 l/m 18,1 km/h (3 Bft) S45 190 0 min 5,25 klux 14 min 15,6 C 13,5 C
06.08.2011 18:45 17,2 C 88 % 1003 hPa 0,6 l/m 13,8 km/h (3 Bft) S22.5 170 0 min 6,23 klux 16 min 15,2 C 14,2 C
06.08.2011 19:00 16,8 C 90 % 1003 hPa 0,0 l/m 10,1 km/h (2 Bft) S22.5 170 0 min 4,48 klux 0 min 15,1 C 15,1 C
06.08.2011 19:15 16,6 C 91 % 1003 hPa 0,3 l/m 11,0 km/h (2 Bft) S22.5 185 0 min 2,82 klux 15 min 15,1 C 14,5 C
06.08.2011 19:30 16,3 C 91 % 1003 hPa 0,3 l/m 16,3 km/h (3 Bft) S-SW45 195 0 min 2,12 klux 15 min 14,8 C 12,4 C
06.08.2011 19:45 16,2 C 91 % 1002 hPa 0,0 l/m 10,0 km/h (2 Bft) SW45 220 0 min 1,74 klux 0 min 14,7 C 14,4 C
06.08.2011 19:59 16,2 C 92 % 1002 hPa 0,0 l/m 13,5 km/h (3 Bft) S-SW 200 0 min 2,07 klux 0 min 14,9 C 13,1 C
06.08.2011 20:15 16,2 C 92 % 1002 hPa 0,6 l/m 11,9 km/h (2 Bft) SW45 230 0 min 1,27 klux 16 min 14,9 C 13,7 C
06.08.2011 20:30 15,8 C 92 % 1002 hPa 1,2 l/m 38,1 km/h (5 Bft) W45 265 0 min 1,02 klux 15 min 14,5 C 7,7 C
06.08.2011 20:45 15,2 C 92 % 1002 hPa 0,3 l/m 24,8 km/h (4 Bft) W22.5 260 0 min 780 lux 15 min 13,9 C 8,9 C
06.08.2011 21:00 15,0 C 93 % 1002 hPa 0,0 l/m 21,6 km/h (4 Bft) SW45 230 0 min 160 lux 0 min 13,9 C 9,4 C
06.08.2011 21:15 14,7 C 94 % 1002 hPa 0,3 l/m 21,5 km/h (4 Bft) W-SW45 245 0 min 93 lux 15 min 13,7 C 9,0 C
06.08.2011 21:29 14,6 C 94 % 1002 hPa 0,0 l/m 17,6 km/h (3 Bft) W-SW45 255 0 min 19 lux 0 min 13,6 C 9,9 C
06.08.2011 21:45 14,4 C 94 % 1002 hPa 0,0 l/m 18,1 km/h (3 Bft) W-SW22.5 250 0 min 9 lux 0 min 13,4 C 9,5 C
06.08.2011 22:00 14,4 C 94 % 1002 hPa 0,0 l/m 22,7 km/h (4 Bft) W-SW45 245 0 min 0 lux 0 min 13,4 C 8,3 C
06.08.2011 22:15 14,3 C 94 % 1002 hPa 0,0 l/m 32,5 km/h (5 Bft) W-SW67.5 240 0 min 0 lux 0 min 13,3 C 6,3 C
06.08.2011 22:30 14,1 C 94 % 1002 hPa 0,0 l/m 19,3 km/h (3 Bft) SW45 235 0 min 0 lux 0 min 13,1 C 8,8 C
06.08.2011 22:45 14,1 C 94 % 1002 hPa 0,0 l/m 18,8 km/h (3 Bft) SW45 230 0 min 0 lux 0 min 13,1 C 8,9 C
06.08.2011 23:00 14,1 C 94 % 1002 hPa 0,0 l/m 17,0 km/h (3 Bft) W-SW45 255 0 min 0 lux 0 min 13,1 C 9,4 C
06.08.2011 23:15 14,1 C 95 % 1002 hPa 0,0 l/m 24,5 km/h (4 Bft) W-SW45 240 0 min 0 lux 0 min 13,3 C 7,5 C
06.08.2011 23:30 14,2 C 95 % 1002 hPa 0,0 l/m 20,1 km/h (4 Bft) W-SW45 240 0 min 0 lux 0 min 13,4 C 8,7 C
06.08.2011 23:45 14,1 C 95 % 1002 hPa 0,0 l/m 18,8 km/h (3 Bft) W-SW22.5 245 0 min 0 lux 0 min 13,3 C 8,9 C
06.08.2011 23:54 14,1 C 95 % 1002 hPa 0,0 l/m 16,6 km/h (3 Bft) W-SW45 250 0 min 0 lux 0 min 13,3 C 9,6 C
_ Min-Zeit 22:30 13:59 19:45 - 00:09 - - - - - 22:30 22:15
Minimum _ 14,1 C 79 % 1002 hPa - 0,0 km/h (0 Bft) - - - - - 13,1 C 6,3 C
_ Max-Zeit 13:59 06:39 00:09 15:00 20:30 - - 00:09 16:30 18:45 13:45 15:45
Maximum _ 21,5 C 95 % 1011 hPa 1,2 l/m 38,1 km/h
W (5 Bft)
- - 0 min 58,2 klux 16 min 18,0 C 20,0 C
Durchschnitt _ 17,6 C 89 % 1006 hPa #7,8 l/m 14,3 km/h (3 Bft) S - #0 min. 12,7 klux #3:15 h 15,7 C 14,6 C